North Myrtle Beach, SC

4:25 PM EST on November 18, 2019 (GMT -0500)
Grand Strand

Weather History for KCRE - August, 2019

Change the Weather History Date:

Friday, August 16, 2019

  Actual Average Record
Temperature  
Mean Temperature 80 °F 79 °F  
Max Temperature 86 °F 86 °F 98 °F (1954)
Min Temperature 74 °F 72 °F 64 °F (1967)
Degree Days  
Heating Degree Days 0 0  
Month to date heating degree days 0 0  
Since 1 June heating degree days 0 0  
Since 1 July heating degree days 0 0  
Cooling Degree Days 15 14  
Month to date cooling degree days 265 229  
Year to date cooling degree days 1557 1274  
Since 1 June cooling degree days 1164 1062  
Growing Degree Days 30 (Base 50)    
Moisture  
Dew Point 74 °F    
Average Humidity 82    
Maximum Humidity 94    
Minimum Humidity 70    
Precipitation  
Precipitation 2.64 in 0.24 in 2.64 in (2019)
Month to date precipitation 5.37 3.37  
Year to date precipitation 28.38 31.31  
Sea Level Pressure  
Sea Level Pressure 29.97 in    
Wind  
Wind Speed 8 mph (SSW)    
Max Wind Speed 21 mph    
Max Gust Speed 26 mph    
Visibility 7 miles    
Events Rain , Thunderstorm    
T = Trace of Precipitation, MM = Missing Value Source: NWS Daily Summary

Daily Weather History Graph

Daily Weather History Graph

Search for Another Location

Airport or City:

Astronomy

Aug. 16, 2019 Rise Set
Actual Time 6:37 AM EDT 8:00 PM EDT
Civil Twilight 6:10 AM EDT 8:26 PM EDT
Nautical Twilight 5:39 AM EDT 8:58 PM EDT
Astronomical Twilight 5:06 AM EDT 9:30 PM EDT
Moon 9:00 PM EDT (8/16) 7:27 AM EDT (8/16)
Length of Visible Light 14h 15m
Length of Day
13h 23m
Full, 99% of the Moon is Illuminated
Aug 16
Full
Aug 23
Last Quarter
Aug 30
New
Sep 5
First Quarter
Sep 14
Full

Hourly Weather History & Observations

Time (EDT) Temp. Heat Index Dew Point Humidity Pressure Visibility Wind Dir Wind Speed Gust Speed Precip Events Conditions
12:53 AM 81.0 °F 87.3 °F 75.9 °F 85% 29.96 in 10.0 mi WSW 4.6 mph - N/A   Clear
2:09 AM 80.1 °F 85.8 °F 77.0 °F 90% 29.94 in 10.0 mi WSW 4.6 mph - N/A Thunderstorm Partly Cloudy
2:37 AM 80.1 °F 85.8 °F 77.0 °F 90% 29.95 in 10.0 mi WSW 5.8 mph - N/A Thunderstorm Thunderstorm
2:53 AM 80.1 °F 85.8 °F 77.0 °F 90% 29.94 in 10.0 mi WSW 4.6 mph - 0.00 in Rain Light Rain
3:53 AM 80.1 °F 85.4 °F 75.9 °F 87% 29.94 in 10.0 mi Calm Calm - 0.00 in   Partly Cloudy
4:53 AM 79.0 °F - 75.9 °F 90% 29.94 in 10.0 mi Calm Calm - N/A   Clear
5:17 AM 79.0 °F - 75.9 °F 90% 29.94 in 10.0 mi Calm Calm - 0.00 in   Mostly Cloudy
5:27 AM 79.0 °F - 75.9 °F 90% 29.94 in 10.0 mi Calm Calm - 0.00 in   Mostly Cloudy
5:53 AM 79.0 °F - 75.9 °F 90% 29.94 in 10.0 mi ESE 4.6 mph - 0.00 in   Partly Cloudy
6:03 AM 79.0 °F - 75.9 °F 90% 29.95 in 6.0 mi Variable 6.9 mph - 0.04 in Rain , Thunderstorm Rain
6:06 AM 79.0 °F - 75.9 °F 90% 29.95 in 1.5 mi WSW 6.9 mph - 0.25 in Rain , Thunderstorm Heavy Rain
6:14 AM 77.0 °F - 73.9 °F 90% 29.95 in 0.8 mi NW 6.9 mph 17.3 mph 0.43 in Rain , Thunderstorm Heavy Rain
6:18 AM 78.1 °F - 73.9 °F 87% 29.94 in 2.0 mi Variable 5.8 mph 17.3 mph 0.43 in Rain Light Rain
6:25 AM 79.0 °F - 75.0 °F 88% 29.95 in 10.0 mi WSW 3.5 mph - 0.43 in Rain , Thunderstorm Light Thunderstorms and Rain
6:39 AM 78.1 °F - 75.0 °F 90% 29.95 in 10.0 mi Calm Calm - 0.43 in   Overcast
6:53 AM 78.1 °F - 75.0 °F 90% 29.95 in 10.0 mi NNE 4.6 mph - 0.43 in   Mostly Cloudy
7:32 AM 78.1 °F - 75.9 °F 93% 29.96 in 10.0 mi Calm Calm - N/A Thunderstorm Partly Cloudy
7:48 AM 78.8 °F - 75.2 °F 89% 29.97 in 10.0 mi Calm Calm - N/A   Clear
7:53 AM 79.0 °F - 75.9 °F 90% 29.97 in 10.0 mi Calm Calm - N/A   Partly Cloudy
8:00 AM 79.0 °F - 75.9 °F 90% 29.97 in 10.0 mi Calm Calm - N/A Thunderstorm Scattered Clouds
8:36 AM 79.0 °F - 73.0 °F 82% 29.98 in 10.0 mi SSW 8.1 mph - 0.00 in Rain Light Rain
8:53 AM 80.1 °F 84.5 °F 73.9 °F 81% 29.98 in 10.0 mi Calm Calm - 0.00 in   Mostly Cloudy
9:10 AM 80.1 °F 84.5 °F 73.9 °F 81% 29.98 in 1.8 mi SSW 13.8 mph 24.2 mph 0.11 in Rain Heavy Rain
9:24 AM 79.0 °F - 73.0 °F 82% 29.97 in 3.0 mi SW 8.1 mph - 0.23 in Rain Light Rain
9:34 AM 77.0 °F - 73.0 °F 88% 29.98 in 1.8 mi South 9.2 mph 19.6 mph 0.32 in Rain Heavy Rain
9:36 AM 77.0 °F - 73.0 °F 88% 29.98 in 2.0 mi South 6.9 mph - 0.32 in Rain , Thunderstorm Heavy Rain
9:41 AM 77.0 °F - 73.9 °F 90% 29.98 in 3.0 mi South 9.2 mph - 0.34 in Rain , Thunderstorm Thunderstorms and Rain
9:53 AM 78.1 °F - 73.9 °F 87% 29.98 in 2.5 mi SSW 8.1 mph - 0.40 in Rain , Thunderstorm Thunderstorms and Rain
10:16 AM 77.0 °F - 73.0 °F 88% 29.99 in 1.8 mi SSW 8.1 mph - 0.14 in Rain Rain
10:24 AM 77.0 °F - 73.9 °F 90% 29.99 in 1.5 mi SW 4.6 mph - 0.19 in Rain , Thunderstorm Rain
10:33 AM 77.0 °F - 73.9 °F 90% 30.00 in 2.5 mi SW 10.4 mph - 0.22 in Rain , Thunderstorm Rain
10:43 AM 77.0 °F - 73.9 °F 90% 29.99 in 1.5 mi WSW 3.5 mph - 0.29 in Rain , Thunderstorm Rain
10:48 AM 77.0 °F - 73.4 °F 89% 29.99 in 3.0 mi WSW 4.6 mph - 0.29 in Rain , Thunderstorm Light Rain
10:53 AM 77.0 °F - 73.9 °F 90% 29.99 in 9.0 mi SW 4.6 mph - 0.30 in Rain Light Rain
11:02 AM 78.1 °F - - N/A% 29.98 in 1.2 mi SSW 4.6 mph - 0.08 in Rain Heavy Rain
11:12 AM 78.1 °F - - N/A% 29.99 in 2.5 mi Calm Calm - 0.09 in Rain , Thunderstorm Light Rain
11:19 AM 79.0 °F - - N/A% 29.99 in 10.0 mi SSW 4.6 mph - 0.09 in Rain , Thunderstorm Light Rain
11:53 AM 79.0 °F - - N/A% 29.99 in 6.0 mi South 9.2 mph - 0.11 in Rain Light Rain
12:48 PM 82.4 °F - - N/A% 29.98 in 10.0 mi SSW 8.1 mph - 0.00 in   Mostly Cloudy
12:53 PM 82.0 °F - - N/A% 29.98 in 10.0 mi SSW 6.9 mph - 0.00 in Rain Light Rain
1:04 PM 82.0 °F 90.2 °F 77.0 °F 85% 29.98 in 10.0 mi WSW 10.4 mph - 0.00 in Rain Light Rain
1:53 PM 82.0 °F 88.6 °F 75.0 °F 79% 29.97 in 10.0 mi SSW 13.8 mph - 0.00 in   Clear
2:53 PM 81.0 °F 86.7 °F 75.0 °F 82% 29.97 in 10.0 mi SSW 13.8 mph - 0.02 in   Overcast
3:53 PM 84.0 °F 93.7 °F 77.0 °F 79% 29.94 in 10.0 mi SSW 16.1 mph - N/A   Mostly Cloudy
4:03 PM 84.0 °F 92.6 °F 75.9 °F 76% 29.94 in 10.0 mi SSW 18.4 mph - N/A   Scattered Clouds
4:53 PM 86.0 °F 96.0 °F 75.9 °F 72% 29.94 in 10.0 mi SSW 15.0 mph - N/A   Partly Cloudy
5:53 PM 84.9 °F 95.3 °F 77.0 °F 77% 29.94 in 10.0 mi SSW 15.0 mph - N/A   Scattered Clouds
6:03 PM 84.9 °F 95.3 °F 77.0 °F 77% 29.94 in 10.0 mi SSW 13.8 mph - N/A   Mostly Cloudy
6:19 PM 84.9 °F 94.1 °F 75.9 °F 74% 29.94 in 10.0 mi SSW 16.1 mph - N/A   Scattered Clouds
6:53 PM 84.9 °F 95.3 °F 77.0 °F 77% 29.93 in 10.0 mi SSW 18.4 mph - N/A   Scattered Clouds
7:44 PM 84.0 °F 92.6 °F 75.9 °F 76% 29.93 in 10.0 mi SW 13.8 mph 23.0 mph N/A   Overcast
7:53 PM 81.0 °F 86.2 °F 73.9 °F 79% 29.93 in 10.0 mi North 17.3 mph 24.2 mph N/A Thunderstorm Thunderstorm
8:04 PM 79.0 °F - 72.0 °F 79% 29.94 in 10.0 mi NE 19.6 mph 23.0 mph N/A Thunderstorm Overcast
8:17 PM 75.9 °F - 73.0 °F 91% 29.96 in 1.8 mi NNE 15.0 mph - 0.26 in Rain , Thunderstorm Heavy Rain
8:28 PM 73.9 °F - 72.0 °F 93% 29.98 in 1.0 mi ENE 10.4 mph - 0.74 in Rain , Thunderstorm Heavy Thunderstorms and Rain
8:43 PM 73.9 °F - 72.0 °F 93% 29.98 in 3.0 mi ENE 9.2 mph - 0.96 in Rain , Thunderstorm Thunderstorms and Rain
8:53 PM 73.9 °F - 72.0 °F 93% 29.99 in 2.5 mi East 8.1 mph - 1.12 in Rain , Thunderstorm Heavy Thunderstorms and Rain
9:00 PM 73.9 °F - 72.0 °F 93% 29.99 in 2.5 mi East 5.8 mph - 0.09 in Rain , Thunderstorm Heavy Rain
9:07 PM 73.9 °F - 72.0 °F 93% 29.99 in 3.0 mi East 4.6 mph - 0.14 in Rain Heavy Rain
9:17 PM 73.9 °F - 71.1 °F 91% 29.99 in 2.5 mi Calm Calm - 0.25 in Rain Heavy Rain
9:23 PM 73.9 °F - 71.1 °F 91% 29.98 in 6.0 mi North 3.5 mph - 0.26 in Rain , Thunderstorm Light Thunderstorms and Rain
9:53 PM 75.0 °F - 72.0 °F 90% 29.99 in 10.0 mi South 6.9 mph - 0.26 in Thunderstorm Thunderstorm
10:27 PM 77.0 °F - 73.0 °F 88% 29.99 in 10.0 mi SSE 10.4 mph - 0.00 in Thunderstorm Mostly Cloudy
10:36 PM 75.9 °F - 73.0 °F 91% 30.00 in 10.0 mi SSE 10.4 mph - 0.00 in Thunderstorm Thunderstorm
10:45 PM 75.9 °F - 73.0 °F 91% 29.98 in 10.0 mi SE 8.1 mph - 0.00 in Thunderstorm Mostly Cloudy
10:53 PM 75.9 °F - 73.0 °F 91% 29.99 in 10.0 mi SSE 8.1 mph - 0.00 in Thunderstorm Mostly Cloudy
11:14 PM 78.1 °F - 73.9 °F 87% 29.99 in 10.0 mi South 10.4 mph - N/A Thunderstorm Overcast
11:39 PM 79.0 °F - 73.0 °F 82% 29.98 in 10.0 mi SSW 9.2 mph - N/A   Mostly Cloudy
11:51 PM 78.8 °F - 73.4 °F 83% 29.99 in 10.0 mi SW 6.9 mph - N/A   Mostly Cloudy
11:53 PM 78.1 °F - 73.0 °F 84% 29.99 in 10.0 mi SW 8.1 mph - N/A   Mostly Cloudy